Weather History for Rochester, NH

Change the Weather History Date:

Tuesday, October 9, 2012

  Actual Average (KSFM) Record (KSFM)
Temperature  
Mean Temperature 48 °F -  
Max Temperature 55 °F 59 °F 84 °F (2011)
Min Temperature 41 °F 37 °F 23 °F (2001)
Degree Days  
Heating Degree Days 17    
Moisture  
Dew Point 44 °F    
Average Humidity 85    
Maximum Humidity 93    
Minimum Humidity 72    
Precipitation  
Precipitation 0.00 in - - ()
Sea Level Pressure  
Sea Level Pressure 30.25 in    
Wind  
Wind Speed 4 mph (North)    
Max Wind Speed 8 mph    
Max Gust Speed -    
Visibility 10 miles    
Events Rain    
Averages and records for this station are not official NWS values.
T = Trace of Precipitation, MM = Missing Value Source: NWS Daily Summary

Daily Weather History Graph

Daily Weather History Graph

Search for Another Location

Airport:

Trip Planner

Search our weather history database for the weather conditions in past years. The results will help you decide how hot, cold, wet, or windy it might be!

Date:

Astronomy

Oct. 09, 2012 Rise Set
Actual Time 6:50 AM EDT 6:10 PM EDT
Civil Twilight 6:22 AM EDT 6:38 PM EDT
Nautical Twilight 5:49 AM EDT 7:11 PM EDT
Astronomical Twilight 5:16 AM EDT 7:44 PM EDT
Moon 12:14 AM EDT (10/9) 2:44 PM EDT (10/9)
Length of Visible Light 12h 16m
Length of Day
11h 19m
Last Quarter, 37% of the Moon is Illuminated
Oct 9
Last Quarter
Oct 15
New
Oct 21
First Quarter
Oct 29
Full
Nov 6
Last Quarter

Hourly Weather History & Observations

Time (EDT) Temp. Windchill Dew Point Humidity Pressure Visibility Wind Dir Wind Speed Gust Speed Precip Events Conditions
12:51 AM 41.0 °F - 39.0 °F 93% 30.32 in 10.0 mi Calm Calm - N/A   Clear
1:51 AM 42.1 °F 39.2 °F 39.9 °F 92% 30.32 in 10.0 mi NNW 4.6 mph - N/A   Overcast
2:51 AM 42.1 °F 40.2 °F 39.9 °F 92% 30.31 in 10.0 mi NNW 3.5 mph - N/A   Overcast
4:51 AM 44.1 °F 40.8 °F 41.0 °F 89% 30.30 in 10.0 mi NNW 5.8 mph - N/A   Overcast
5:51 AM 44.1 °F 40.8 °F 41.0 °F 89% 30.30 in 10.0 mi NNW 5.8 mph - N/A   Overcast
6:51 AM 44.1 °F 41.5 °F 41.0 °F 89% 30.30 in 10.0 mi NNW 4.6 mph - N/A   Overcast
8:33 AM 48.2 °F - 44.6 °F 87% 30.30 in 10.0 mi North 8.1 mph - N/A   Overcast
8:51 AM 48.0 °F - 44.1 °F 86% 30.30 in 10.0 mi North 4.6 mph - N/A   Overcast
9:51 AM 54.0 °F - 45.0 °F 72% 30.30 in 10.0 mi NE 5.8 mph - N/A   Overcast
10:51 AM 53.1 °F - 45.0 °F 74% 30.30 in 10.0 mi NE 4.6 mph - N/A   Overcast
11:51 AM 52.0 °F - 45.0 °F 77% 30.28 in 10.0 mi NE 3.5 mph - N/A   Overcast
12:51 PM 55.0 °F - 46.0 °F 72% 30.27 in 10.0 mi NE 4.6 mph - N/A   Overcast
1:51 PM 54.0 °F - 45.0 °F 72% 30.24 in 10.0 mi NE 5.8 mph - N/A   Overcast
2:51 PM 54.0 °F - 46.0 °F 75% 30.24 in 10.0 mi ENE 6.9 mph - N/A   Overcast
3:13 PM 53.6 °F - 46.4 °F 77% 30.23 in 10.0 mi ENE 8.1 mph - N/A   Overcast
3:51 PM 52.0 °F - 48.0 °F 86% 30.23 in 9.0 mi ENE 4.6 mph - N/A   Overcast
4:07 PM 51.8 °F - 48.2 °F 88% 30.22 in 7.0 mi Variable 3.5 mph - 0.00 in Rain Light Rain
4:51 PM 52.0 °F - 48.0 °F 86% 30.21 in 10.0 mi NE 4.6 mph - 0.00 in   Overcast
5:29 PM 51.8 °F - 46.4 °F 82% 30.21 in 10.0 mi NE 5.8 mph - N/A   Overcast
6:51 PM 48.9 °F - 46.0 °F 90% 30.20 in 10.0 mi Calm Calm - N/A   Clear
7:51 PM 46.9 °F - 45.0 °F 93% 30.20 in 10.0 mi North 3.5 mph - N/A   Overcast
8:51 PM 46.9 °F - 44.1 °F 90% 30.19 in 10.0 mi NNW 4.6 mph - N/A   Overcast
9:51 PM 44.1 °F 40.8 °F 42.1 °F 93% 30.18 in 10.0 mi NW 5.8 mph - N/A   Clear
10:51 PM 44.1 °F 40.8 °F 42.1 °F 93% 30.18 in 10.0 mi NW 5.8 mph - N/A   Mostly Cloudy
11:51 PM 44.1 °F 42.5 °F 41.0 °F 89% 30.16 in 10.0 mi NW 3.5 mph - N/A   Mostly Cloudy